Regional Weather Roundup
Issued by NWS

Home | Current Version | Previous Version | Graphics & Text | Print | Product List | Glossary On
Versions: 1 2 3 4 5 6 7 8 9 10 11 12 13 14 15 16 17 18 19 20 21 22 23 24 25 26 27 28 29 30 31 32 33 34 35 36 37 38 39 40 41 42 43 44 45 46 47 48 49 50
000
ASUS45 KSLC 050610
RWRUT

UTAH REGIONAL WEATHER ROUNDUP
NATIONAL WEATHER SERVICE SALT LAKE CITY UT
1100 PM MST THU FEB 04 2016

UTZ001>011-023>025-050700-

NORTHERN UTAH

CITY           SKY/WX    TMP DP  RH WIND       PRES   REMARKS
BRIGHAM CITY   CLOUDY    27  23  86 CALM      30.48R
HILL AFB       FLURRIES  26  19  76 NW1       30.44R
LOGAN          CLOUDY    23  22  96 CALM      30.46R FOG
OGDEN          CLOUDY    27  23  85 S3        30.45R
PROVO AIRPORT  CLOUDY    21  18  86 CALM      30.48R
SALT LAKE CITY CLOUDY    29  21  72 S6        30.46R WCI  23
VERNAL         CLOUDY     8   5  87 CALM      30.42R
WENDOVER       CLEAR     25  19  80 CALM      30.47S
HEBER CITY     LGT SNOW  21  19  93 E5        30.40S WCI  15
WEST JORDAN    CLOUDY    27  21  80 S8        30.45R WCI  18

$$

UTZ012>022-026-027-050700-

SOUTHERN/CENTRAL UTAH

CITY           SKY/WX    TMP DP  RH WIND       PRES   REMARKS
BLANDING       CLEAR     10   8  92 N5        30.44R WCI   1
BRYCE CANYON   PTCLDY     3   0  87 W7        30.37S WCI  -9
CEDAR CITY     PTCLDY     8   7  95 CALM      30.42F
DELTA          MOCLDY     5   3  91 CALM      30.49S VSB<1/4
HANKSVILLE     PTCLDY     3   0  85 CALM      30.51S
MILFORD        PTCLDY     4   0  83 SW5       30.48R WCI  -5
MOAB/CYNLANDS  FOG       -2  -4  91 NE3       30.47R VSB 3/4
PRICE          MOCLDY    10   7  87 E6        30.37S WCI   0
ST GEORGE      MOCLDY    36  23  60 NW3       30.47R
KANAB          CLEAR     32  23  69 CALM      30.46R

$$

REGIONAL REPORTS     COLORADO/ARIZONA

CITY           SKY/WX    TMP DP  RH WIND       PRES   REMARKS
CRAIG, CO      LGT SNOW  15  12  88 CALM      30.32S FOG
GRAND JUNCTION LGT SNOW  17  16  95 CALM      30.44S FOG
RIFLE          LGT SNOW  17  12  80 CALM      30.41R
MONTROSE       FLURRIES  15   8  73 SE5       30.43R WCI   8
CORTEZ         CLOUDY     7   3  84 E9        30.36R WCI  -7
PAGE, AZ       PTCLDY    29  20  69 E5        30.43R WCI  24
GRAND CANYON   PTCLDY    20  12  71 NE7       30.36R WCI  11
KINGMAN        CLEAR     34  20  56 NE8       30.38R WCI  27
FLAGSTAFF      MOCLDY    25  11  55 E16       30.30F WCI  12

$$

REGIONAL REPORTS    NEVADA/IDAHO/WYOMING

CITY           SKY/WX    TMP DP  RH WIND       PRES   REMARKS
LAS VEGAS, NV  PTCLDY    46  23  40 NE7       30.40R
ELY            CLEAR      7   4  87 S14       30.46R WCI -10
ELKO           CLEAR     14  11  87 CALM      30.50R
POCATELLO, ID  CLOUDY    26  23  88 CALM      30.45R
BURLEY         CLOUDY    34  28  79 W7        30.41R WCI  28
EVANSTON, WY   LGT SNOW  20  16  84 SW8       30.34R FOG     WCI  10
ROCK SPRINGS   CLOUDY    17  12  80 W20       30.27R WCI   1

$$



USA.gov is the U.S. government's official web portal to all federal, state and local government web resources and services.